Temp
71 75 74 73 71 72 72 73 71 70 70 70 71 71 71 73 75 76 77 75 75 78
70 69 70 68 68 71 70 72 70 69 68 69 70 70 70 72 72 74 75 75 76 77
71 70 70 69 67 67 68 68 67 67 67 68 69 70 69 71 73 73 76 77 75 74
70 70 70 69 68 68 67 67 67 67 67 67 68 69 68 69 71 72 73 74 69 66
69 69 68 68 67 67 66 66 66 66 67 68 68 68 68 65 66 68 66 66 62 62
67 67 66 66 66 66 65 65 66 66 66 67 67 68 66 64 68 66 62 59 57 59
65 65 66 66 65 65 65 64 64 65 66 66 68 68 63 61 63 61 57 56 56 57
65 65 65 65 65 63 62 60 61 61 66 66 62 61 59 60 59 56 54 54 56 55
62 61 60 60 59 59 59 59 58 62 60 59 58 50 51 56 54 52 52 53 55 57
57 56 56 57 57 57 57 57 56 58 57 55 54 47 48 51 52 52 53 54 57 60
54 54 54 55 56 55 56 54 57 54 53 51 49 47 47 49 51 51 52 55 59 60
51 50 51 53 53 54 54 57 52 50 49 49 48 46 46 49 50 51 54 59 61 60
50 50 49 48 50 51 53 50 48 47 48 47 46 43 45 48 48 49 53 56 56 45
49 49 51 49 51 49 47 46 45 44 44 45 45 43 43 45 49 52 49 52 56 54
MSLP
1013.82 1013.46 1013.52 1013.49 1013.86 1013.74 1013.35 1013.03 1013.05 1012.92 1012.63 1012.24 1011.87 1011.32 1010.77 1010.10 1009.24 1008.60 1007.96 1007.65 1007.39 1006.79
1013.79 1013.90 1013.80 1013.91 1013.83 1013.43 1013.28 1012.94 1012.85 1012.71 1012.37 1011.91 1011.38 1010.81 1010.27 1009.45 1008.67 1008.17 1007.52 1006.98 1006.55 1006.13
1013.34 1013.51 1013.52 1013.55 1013.37 1013.31 1013.11 1012.91 1012.65 1012.33 1011.85 1011.35 1010.79 1010.23 1009.68 1008.83 1007.95 1007.39 1006.93 1006.40 1005.94 1005.85
1012.93 1012.96 1013.02 1012.89 1012.69 1012.76 1012.67 1012.46 1012.07 1011.67 1011.21 1010.70 1010.09 1009.52 1008.99 1008.42 1007.70 1007.01 1006.58 1006.29 1006.58 1006.47
1012.70 1012.60 1012.55 1012.23 1012.26 1012.35 1012.19 1011.91 1011.56 1011.09 1010.58 1010.04 1009.49 1008.97 1008.41 1008.10 1007.74 1007.15 1007.16 1007.24 1007.11 1006.69
1012.20 1012.11 1011.92 1011.83 1011.91 1011.94 1011.75 1011.41 1011.02 1010.54 1010.05 1009.47 1009.06 1008.47 1008.13 1008.08 1007.28 1007.41 1007.86 1007.92 1007.63 1007.23
1011.74 1011.60 1011.44 1011.39 1011.46 1011.42 1011.36 1011.07 1010.59 1010.19 1009.63 1009.22 1008.55 1008.05 1008.23 1008.15 1007.82 1008.15 1008.46 1008.27 1008.15 1007.83
1011.13 1011.10 1011.01 1010.83 1010.85 1011.10 1011.15 1011.07 1010.71 1010.29 1009.34 1008.82 1008.65 1008.41 1008.50 1008.19 1008.38 1008.73 1008.84 1008.84 1008.63 1008.74
1010.77 1010.77 1010.78 1010.80 1010.81 1010.93 1010.67 1010.51 1010.52 1009.64 1009.39 1008.96 1008.89 1009.00 1008.69 1008.52 1009.01 1009.15 1009.18 1009.10 1009.12 1009.12
1010.76 1010.77 1010.84 1010.79 1010.64 1010.41 1010.11 1010.09 1010.06 1009.57 1009.25 1009.23 1009.25 1009.27 1009.16 1009.32 1009.37 1009.42 1009.41 1009.35 1009.11 1009.12
1010.72 1010.66 1010.57 1010.29 1010.01 1009.81 1009.81 1009.89 1009.49 1009.68 1009.62 1009.69 1009.88 1009.81 1009.80 1009.78 1009.85 1009.83 1009.84 1009.81 1009.64 1009.70
1010.53 1010.54 1010.41 1009.91 1009.80 1009.73 1009.73 1009.39 1009.76 1009.88 1010.04 1010.03 1010.31 1010.39 1010.41 1010.39 1010.51 1010.43 1010.33 1010.13 1010.35 1010.56
1010.48 1010.29 1010.28 1010.36 1010.04 1009.71 1009.56 1009.90 1010.17 1010.43 1010.49 1010.67 1010.95 1011.20 1011.11 1011.23 1011.30 1011.22 1011.12 1011.27 1011.69 1011.96
1010.21 1010.10 1009.97 1010.24 1010.14 1010.15 1010.21 1010.45 1010.78 1011.04 1011.33 1011.64 1011.88 1012.04 1011.93 1012.03 1011.96 1011.97 1012.27 1012.20 1012.51 1012.98
Wind_Speed
3 5 5 5 6 8 9 10 12 13 15 16 17 16 15 14 13 14 12 15 13 15
6 7 8 8 8 9 10 11 14 16 16 16 17 17 16 13 14 14 13 14 14 14
7 8 9 9 11 12 12 14 15 16 16 15 16 16 16 14 14 14 12 12 14 14
9 10 10 10 11 12 12 14 14 15 15 15 15 16 14 15 16 16 15 14 14 11
10 11 12 11 11 12 14 13 14 14 14 15 15 15 15 12 12 13 11 13 10 8
12 13 13 13 11 12 13 14 14 14 15 14 15 15 11 12 13 9 7 6 6 6
14 14 13 13 12 12 13 15 15 14 14 15 15 14 9 7 6 4 3 4 7 8
15 14 14 13 12 12 13 13 14 16 14 14 11 4 6 4 0 4 7 7 9 12
15 14 13 13 12 15 15 13 13 14 13 10 6 7 3 4 7 6 6 7 9 12
13 13 12 14 16 17 13 11 13 11 10 5 4 6 9 9 6 5 5 6 8 9
13 15 15 14 13 10 9 9 11 9 1 3 5 8 9 10 7 7 8 8 9 11
11 11 9 10 10 7 8 11 5 2 3 7 8 9 10 9 7 9 8 11 12 12
10 12 8 7 8 6 6 2 5 6 8 12 11 11 11 9 6 9 9 13 13 18
8 8 7 6 6 4 4 7 8 10 11 12 12 13 16 11 7 10 8 8 10 9
Wind_Direction
270 271 282 266 304 294 304 298 309 296 294 294 294 291 288 279 275 282 275 279 282 284
276 279 297 290 283 284 297 297 298 298 291 288 288 288 288 278 276 277 275 276 278 273
281 274 273 277 283 289 291 292 295 292 288 287 286 287 283 278 270 269 274 281 290 302
283 280 273 278 286 290 296 294 293 292 290 288 289 289 284 280 277 272 281 300 302 295
290 284 275 286 291 297 298 298 295 291 289 289 292 291 288 288 288 276 299 304 305 293
295 290 287 289 289 298 299 297 294 294 290 292 294 292 297 300 298 323 318 330 328 321
291 290 287 281 282 293 300 300 293 299 292 294 288 297 308 305 319 335 24 28 31 22
291 289 286 273 280 300 296 297 301 286 293 295 306 307 313 294 88 116 82 68 68 60
292 285 279 274 293 294 285 282 281 287 294 302 310 342 305 137 117 97 106 105 95 89
280 281 282 279 280 273 273 276 276 287 305 307 359 71 95 100 102 112 109 116 104 99
284 281 278 272 275 277 266 267 272 307 332 78 77 89 93 88 85 83 78 89 102 93
281 275 304 274 281 276 264 265 316 79 107 102 91 80 86 93 91 96 101 99 89 96
263 266 248 291 289 293 342 2 94 88 79 79 76 61 70 84 95 103 106 97 81 45
262 276 236 251 288 351 95 100 92 85 76 75 73 60 53 51 55 82 73 70 82 76